STARLINK-11185, 62588

Orbit data source: Space-Track

STARLINK-11185, 62588 is a payload satellite owned by SpaceX/Seattle (US) in LEO that was launched on Mon, 13 Jan 2025 UTC via an FALCON 9 launch vehicle from the Air Force Eastern Test Range (AFETR). Payload-class satellites include a variety of spacecraft equipped with specific instruments for various scientific and technological missions. These include communications satellites like Starlink; space stations such as the ISS; scientific satellites like the Hubble; Earth observation satellites from companies like Planet Labs, Umbra, and HawkEye 360; GPS; miniature CubeSats for education and research; and military/defense satellites.

Loading next visibility...
Identifier
62588, 2025-008B
Orbit
LEO
Country
Flag of USUS
Related business
Manufacturer
SpaceX/Seattle
Mission
Operational Commercial Communications
Bus & Motor
STARLINK V2MD, Unknown motor
Mass
960 kg wet, ~910 kg dry
Launch date (UTC)
2025-01-13 (2 years ago)
Launch vehicle
FALCON 9
Launch site
Air Force Eastern Test Range (AFETR)
Object type
Payload
Rocket body
Debris
Shape & HBR
Box + 2 Pan, 18.1 m
Radar Cross Section
36.964 m², Large (>1 m²)

Expand to show TLE details & history
Last TLE update: 13 hours ago

TLE from 13 hours ago
0 STARLINK-11185
1 62588U 25008B   26236.27414490  .00229139  00000-0  17360-2 0  9999
2 62588  42.9997 195.7786 0001458 282.3739  77.6965 15.70900805 92473
Epoch: 2026-08-24T06:34Z
TLE epoch observation values (Epoch: 2026-08-24T06:34:46.119Z)
Latitude
-0.00004°
Longitude
124.52819°
Altitude
355.883 km
Speed
7.698 km/s
True Right ascension
13h 03m 06s
True Declination
0° 00' 00"
Sunlit
Object was in daylight at epoch
Visualization orbit readout
Latitude
Unknown
Longitude
Unknown
Altitude
Unknown
Speed
Unknown
Apparent Right ascension
Unknown
Apparent Declination
Unknown
Sunlit
N/A
Visualization observer readout
Local Sidereal Time
10:30:46
Azimuth
Unknown
Elevation
Unknown
Doppler factor
Unknown
Orbital elements
Apogee altitude
359.285 km
Perigee altitude
357.321 km
Semi-major axis
6,736.44 km
Eccentricity
0.00015
Inclination
42.9997°
RAAN
195.7786°
Arg. of periapsis
282.3739°
True anomaly
77.71282°
Mean anomaly
77.6965°
Eccentric anomaly
77.70466°
Mean motion
3.92552 °/min
Orbital period
91.71 mins
BSTAR
0.001736
Loading maneuver chart data...
Computing Atmospheric mass density...
Loading historical data...
Loading historical data...
Loading historical data...
Loading historical data...
Loading historical data...
Loading historical data...
Loading historical data...

Documentation

Showing up to 5 results
|